Weather History for KCCU - September, 2014

Change the Weather History Date:

Monday, September 1, 2014

  Actual Average (KLXV) Record (KLXV)
Temperature  
Mean Temperature 49 °F -  
Max Temperature 57 °F 65 °F 73 °F (1983)
Min Temperature 41 °F 35 °F 28 °F (2005)
Degree Days  
Heating Degree Days 16 15  
Month to date heating degree days 15  
Since 1 July heating degree days 737  
Cooling Degree Days 0 0  
Month to date cooling degree days 0  
Year to date cooling degree days 0  
Moisture  
Dew Point 28 °F    
Average Humidity 46    
Maximum Humidity 61    
Minimum Humidity 30    
Precipitation  
Precipitation 0.00 in 0.05 in 0.30 in (1987)
Month to date precipitation 0.05  
Year to date precipitation 9.00  
Sea Level Pressure  
Sea Level Pressure 30.46 in    
Wind  
Wind Speed 17 mph (WSW)    
Max Wind Speed 31 mph    
Max Gust Speed 46 mph    
Visibility 10 miles    
Events      
T = Trace of Precipitation, MM = Missing Value Source: NWS Daily Summary

Daily Weather History Graph

Daily Weather History Graph

Search for Another Location

Airport or City:

Trip Planner

Search our weather history database for the weather conditions in past years. The results will help you decide how hot, cold, wet, or windy it might be!

Date:

Astronomy

Sep. 01, 2014 Rise Set
Actual Time 6:32 AM MDT 7:35 PM MDT
Civil Twilight 6:05 AM MDT 8:02 PM MDT
Nautical Twilight 5:32 AM MDT 8:35 PM MDT
Astronomical Twilight 4:58 AM MDT 9:09 PM MDT
Moon 1:19 PM MDT (9/1) 11:40 PM MDT (9/1)
Length of Visible Light 13h 57m
Length of Day
13h 02m
Waxing Crescent, 43% of the Moon is Illuminated
Sep 1
Waxing Crescent
Sep 2
First Quarter
Sep 8
Full
Sep 15
Last Quarter
Sep 24
New

Hourly Weather History & Observations

Time (MDT) Temp. Windchill Dew Point Humidity Pressure Visibility Wind Dir Wind Speed Gust Speed Precip Events Conditions
12:16 AM 44.6 °F 39.2 °F 32.0 °F 61% 30.42 in 10.0 mi WSW 10.4 mph 18.4 mph N/A   Mostly Cloudy
12:36 AM 44.6 °F 38.1 °F 32.0 °F 61% 30.42 in 10.0 mi West 13.8 mph 21.9 mph N/A   Mostly Cloudy
12:56 AM 44.6 °F 39.7 °F 32.0 °F 61% 30.42 in 10.0 mi WSW 9.2 mph 19.6 mph N/A   Scattered Clouds
1:16 AM 44.6 °F 38.4 °F 32.0 °F 61% 30.43 in 10.0 mi WSW 12.7 mph 19.6 mph N/A   Scattered Clouds
1:36 AM 44.6 °F 40.2 °F 32.0 °F 61% 30.42 in 10.0 mi WSW 8.1 mph - N/A   Clear
1:56 AM 44.6 °F 39.7 °F 32.0 °F 61% 30.42 in 10.0 mi SSW 9.2 mph - N/A   Clear
2:16 AM 44.6 °F 39.7 °F 32.0 °F 61% 30.42 in 10.0 mi SSW 9.2 mph - N/A   Clear
2:36 AM 44.6 °F 36.9 °F 32.0 °F 61% 30.41 in 10.0 mi South 18.4 mph 24.2 mph N/A   Clear
2:56 AM 44.6 °F 38.8 °F 30.2 °F 57% 30.41 in 10.0 mi South 11.5 mph 20.7 mph N/A   Clear
3:16 AM 44.6 °F 38.8 °F 28.4 °F 53% 30.40 in 10.0 mi SW 11.5 mph 24.2 mph N/A   Clear
3:36 AM 44.6 °F 38.8 °F 28.4 °F 53% 30.40 in 10.0 mi SW 11.5 mph 23.0 mph N/A   Clear
3:56 AM 44.6 °F 40.7 °F 28.4 °F 53% 30.41 in 10.0 mi SW 6.9 mph 26.5 mph N/A   Clear
4:16 AM 44.6 °F 38.8 °F 26.6 °F 49% 30.40 in 10.0 mi SW 11.5 mph 24.2 mph N/A   Clear
4:36 AM 44.6 °F 38.8 °F 26.6 °F 49% 30.40 in 10.0 mi SSW 11.5 mph 20.7 mph N/A   Clear
4:56 AM 42.8 °F 36.6 °F 26.6 °F 53% 30.40 in 10.0 mi SW 11.5 mph 17.3 mph N/A   Clear
5:16 AM 41.0 °F 34.7 °F 26.6 °F 57% 30.40 in 10.0 mi SW 10.4 mph 20.7 mph N/A   Clear
5:36 AM 41.0 °F 33.1 °F 23.0 °F 49% 30.40 in 10.0 mi SSW 15.0 mph 19.6 mph N/A   Clear
6:16 AM 41.0 °F 33.5 °F 21.2 °F 45% 30.40 in 10.0 mi WSW 13.8 mph 21.9 mph N/A   Clear
6:56 AM 41.0 °F 31.9 °F 19.4 °F 42% 30.41 in 10.0 mi West 19.6 mph 28.8 mph N/A   Clear
7:16 AM 44.6 °F 35.5 °F 19.4 °F 37% 30.40 in 10.0 mi West 25.3 mph 38.0 mph N/A   Clear
7:36 AM 44.6 °F 35.9 °F 23.0 °F 43% 30.40 in 10.0 mi West 23.0 mph 36.8 mph N/A   Clear
7:56 AM 42.8 °F 33.8 °F 23.0 °F 46% 30.41 in 10.0 mi West 21.9 mph 26.5 mph N/A   Clear
8:16 AM 44.6 °F 35.7 °F 23.0 °F 43% 30.41 in 10.0 mi West 24.2 mph 33.4 mph N/A   Clear
8:36 AM 44.6 °F 35.5 °F 23.0 °F 43% 30.41 in 10.0 mi West 25.3 mph 31.1 mph N/A   Clear
8:56 AM 44.6 °F 34.7 °F 23.0 °F 43% 30.41 in 10.0 mi West 29.9 mph 40.3 mph N/A   Clear
9:16 AM 44.6 °F 35.1 °F 23.0 °F 43% 30.42 in 10.0 mi West 27.6 mph 36.8 mph N/A   Clear
9:36 AM 46.4 °F 37.9 °F 24.8 °F 43% 30.42 in 10.0 mi West 25.3 mph 39.1 mph N/A   Clear
9:56 AM 46.4 °F 38.3 °F 26.6 °F 46% 30.44 in 10.0 mi West 23.0 mph 36.8 mph N/A   Scattered Clouds
10:16 AM 46.4 °F 38.1 °F 26.6 °F 46% 30.44 in 10.0 mi West 24.2 mph 40.3 mph N/A   Scattered Clouds
10:36 AM 48.2 °F - 26.6 °F 43% 30.43 in 10.0 mi West 25.3 mph 36.8 mph N/A   Scattered Clouds
10:56 AM 50.0 °F - 28.4 °F 43% 30.44 in 10.0 mi West 27.6 mph 34.5 mph N/A   Mostly Cloudy
11:16 AM 46.4 °F 38.7 °F 28.4 °F 50% 30.45 in 10.0 mi West 20.7 mph 32.2 mph N/A   Mostly Cloudy
11:36 AM 50.0 °F - 30.2 °F 47% 30.45 in 10.0 mi West 21.9 mph 32.2 mph N/A   Mostly Cloudy
11:56 AM 51.8 °F - 30.2 °F 44% 30.45 in 10.0 mi West 20.7 mph 31.1 mph N/A   Mostly Cloudy
12:16 PM 51.8 °F - 30.2 °F 44% 30.46 in 10.0 mi West 20.7 mph 34.5 mph N/A   Mostly Cloudy
12:36 PM 53.6 °F - 32.0 °F 44% 30.45 in 10.0 mi West 20.7 mph 26.5 mph N/A   Mostly Cloudy
12:56 PM 53.6 °F - 32.0 °F 44% 30.44 in 10.0 mi West 25.3 mph 36.8 mph N/A   Scattered Clouds
1:16 PM 51.8 °F - 30.2 °F 44% 30.45 in 10.0 mi West 20.7 mph 36.8 mph N/A   Scattered Clouds
1:36 PM 53.6 °F - 32.0 °F 44% 30.45 in 10.0 mi West 24.2 mph 31.1 mph N/A   Scattered Clouds
1:56 PM 53.6 °F - 32.0 °F 44% 30.45 in 10.0 mi West 26.5 mph 34.5 mph N/A   Mostly Cloudy
2:16 PM 53.6 °F - 26.6 °F 35% 30.46 in 10.0 mi WSW 23.0 mph 42.6 mph N/A   Mostly Cloudy
2:36 PM 53.6 °F - 28.4 °F 38% 30.45 in 10.0 mi West 27.6 mph 42.6 mph N/A   Scattered Clouds
2:56 PM 53.6 °F - 26.6 °F 35% 30.45 in 10.0 mi West 31.1 mph 43.7 mph N/A   Scattered Clouds
3:16 PM 53.6 °F - 26.6 °F 35% 30.45 in 10.0 mi West 27.6 mph 35.7 mph N/A   Mostly Cloudy
3:36 PM 53.6 °F - 23.0 °F 30% 30.46 in 10.0 mi WSW 25.3 mph 46.0 mph N/A   Scattered Clouds
3:56 PM 55.4 °F - 26.6 °F 33% 30.46 in 10.0 mi West 25.3 mph 43.7 mph N/A   Scattered Clouds
4:16 PM 55.4 °F - 24.8 °F 31% 30.46 in 10.0 mi West 26.5 mph 36.8 mph N/A   Mostly Cloudy
4:36 PM 57.2 °F - 26.6 °F 31% 30.47 in 10.0 mi West 24.2 mph 34.5 mph N/A   Scattered Clouds
4:56 PM 53.6 °F - 28.4 °F 38% 30.47 in 10.0 mi West 26.5 mph 32.2 mph N/A   Scattered Clouds
5:16 PM 55.4 °F - 28.4 °F 36% 30.48 in 10.0 mi West 20.7 mph 32.2 mph N/A   Mostly Cloudy
5:36 PM 53.6 °F - 26.6 °F 35% 30.48 in 10.0 mi West 23.0 mph 39.1 mph N/A   Scattered Clouds
5:56 PM 53.6 °F - 26.6 °F 35% 30.48 in 10.0 mi West 27.6 mph 35.7 mph N/A   Scattered Clouds
6:16 PM 53.6 °F - 26.6 °F 35% 30.49 in 10.0 mi West 26.5 mph 34.5 mph N/A   Clear
6:36 PM 53.6 °F - 28.4 °F 38% 30.49 in 10.0 mi West 20.7 mph 33.4 mph N/A   Clear
6:56 PM 53.6 °F - 30.2 °F 41% 30.50 in 10.0 mi West 16.1 mph 25.3 mph N/A   Clear
7:16 PM 53.6 °F - 30.2 °F 41% 30.51 in 10.0 mi West 19.6 mph - N/A   Clear
7:36 PM 50.0 °F - 28.4 °F 43% 30.52 in 10.0 mi West 19.6 mph - N/A   Clear
7:56 PM 50.0 °F - 28.4 °F 43% 30.52 in 10.0 mi West 23.0 mph - N/A   Clear
8:16 PM 46.4 °F 38.5 °F 28.4 °F 50% 30.53 in 10.0 mi West 21.9 mph - N/A   Clear
8:36 PM 46.4 °F 38.7 °F 26.6 °F 46% 30.54 in 10.0 mi West 20.7 mph - N/A   Clear
8:56 PM 46.4 °F 38.7 °F 28.4 °F 50% 30.54 in 10.0 mi West 20.7 mph 25.3 mph N/A   Clear
9:16 PM 46.4 °F 39.2 °F 28.4 °F 50% 30.55 in 10.0 mi West 18.4 mph 26.5 mph N/A   Clear
9:36 PM 46.4 °F 41.5 °F 28.4 °F 50% 30.56 in 10.0 mi WSW 10.4 mph 20.7 mph N/A   Clear
9:56 PM 46.4 °F 40.1 °F 28.4 °F 50% 30.56 in 10.0 mi West 15.0 mph 19.6 mph N/A   Clear
10:16 PM 46.4 °F 40.7 °F 28.4 °F 50% 30.56 in 10.0 mi WSW 12.7 mph 19.6 mph N/A   Clear
10:36 PM 44.6 °F 39.7 °F 28.4 °F 53% 30.56 in 10.0 mi WSW 9.2 mph 17.3 mph N/A   Clear
10:56 PM 46.4 °F 41.1 °F 28.4 °F 50% 30.56 in 10.0 mi West 11.5 mph 17.3 mph N/A   Clear
11:16 PM 46.4 °F 41.1 °F 28.4 °F 50% 30.56 in 10.0 mi West 11.5 mph 17.3 mph N/A   Clear
11:36 PM 44.6 °F 40.2 °F 28.4 °F 53% 30.56 in 10.0 mi West 8.1 mph - N/A   Clear
11:56 PM 44.6 °F 40.7 °F 28.4 °F 53% 30.56 in 10.0 mi WSW 6.9 mph - N/A   Clear